Location: Haliburton Scout Reserve
(45.0900°N, 78.3200°W)
Time: 19:06:46
(UTC-05:00)

IDEFIX/ARIANE 42P - Visible Passes

Search period start: 22 November 2017 00:00
Search period end: 02 December 2017 00:00
Orbit: 785 x 803 km, 98.2° (Epoch: 22 November)

Date Brightness Start Highest point End Pass type
(mag) Time Alt. Az. Time Alt. Az. Time Alt. Az.
22 Nov 5.1 04:34:03 10° NE 04:37:53 20° E 04:41:41 10° SE visible
22 Nov 2.6 06:12:46 10° N 06:17:49 55° WNW 06:22:51 10° SSW visible
22 Nov 4.6 17:33:59 10° SSW 17:38:35 31° W 17:43:13 10° NNW visible
23 Nov 5.7 04:07:42 10° ENE 04:09:11 11° E 04:10:39 10° ESE visible
23 Nov 2.6 05:44:20 10° NNE 05:49:33 86° ESE 05:54:44 10° SSW visible
23 Nov 3.5 17:04:59 10° S 17:10:06 55° W 17:15:14 10° NNW visible
24 Nov 3.5 05:16:08 10° NNE 05:21:10 49° E 05:26:10 10° S visible
24 Nov 5.7 18:19:39 10° WSW 18:22:01 13° W 18:24:23 10° WNW visible
25 Nov 4.6 04:48:14 10° NE 04:52:39 28° E 04:57:03 10° SSE visible
25 Nov 2.9 06:27:32 10° N 06:32:22 41° WNW 06:37:11 10° SW visible
25 Nov 5.2 17:49:14 10° SW 17:53:21 23° W 17:57:28 10° NW visible
26 Nov 5.4 04:20:57 10° NE 04:24:01 16° E 04:27:05 10° SE visible
26 Nov 2.5 05:58:59 10° N 06:04:09 71° WNW 06:09:19 10° SSW visible
26 Nov 4.1 17:19:54 10° SSW 17:24:48 41° W 17:29:43 10° NNW visible
27 Nov 2.9 05:30:39 10° NNE 05:35:50 67° ESE 05:40:59 10° S visible
28 Nov 4.0 05:02:34 10° NNE 05:07:23 37° E 05:12:10 10° SSE visible
28 Nov 3.3 06:42:23 10° N 06:46:53 31° WNW 06:51:22 10° SW visible
28 Nov 5.5 18:04:46 10° SW 18:08:08 17° W 18:11:31 10° NW visible
29 Nov 5.0 04:34:54 10° NE 04:38:49 21° E 04:42:44 10° SE visible
29 Nov 2.7 06:13:42 10° N 06:18:44 52° WNW 06:23:45 10° SW visible
29 Nov 4.7 17:34:59 10° SSW 17:39:32 30° W 17:44:06 10° NNW visible
30 Nov 5.7 04:08:19 10° ENE 04:10:08 12° E 04:11:57 10° ESE visible
30 Nov 2.5 05:45:15 10° NNE 05:50:28 89° ESE 05:55:40 10° SSW visible
30 Nov 3.5 17:05:58 10° S 17:11:03 53° W 17:16:09 10° NNW visible
01 Dec 3.4 05:17:01 10° NNE 05:22:05 51° E 05:27:07 10° S visible
01 Dec 3.6 06:57:18 10° NNW 07:01:22 24° WNW 07:05:24 10° WSW visible
01 Dec 5.7 18:20:52 10° WSW 18:22:58 12° W 18:25:04 10° WNW visible
